Location: Unspecified
(0.0000°N, 0.0000°E)
Time: 05:33:56
(UTC-05:00)

CZ-3 Stage 3 - Visible Passes

Search period start: 24 June 2017 00:00
Search period end: 04 July 2017 00:00
Orbit: 417 x 34781 km, 30.9° (Epoch: 23 June)

Date Brightness Start Highest point End Pass type
(mag) Time Alt. Az. Time Alt. Az. Time Alt. Az.
24 Jun 10.2 15:48:45 10° WNW 17:22:42 27° WNW 20:29:47 10° W visible
25 Jun 6.8 11:41:47 10° NW 15:27:04 72° NNW 21:14:02 10° SSE visible
26 Jun 6.6 07:58:11 10° NW 15:43:45 66° ESE 16:44:53 57° SE visible
27 Jun 10.3 15:39:10 10° WNW 17:12:21 28° WNW 20:18:41 10° W visible
28 Jun 6.8 11:32:37 10° NW 15:14:16 73° NNW 21:04:50 10° SSE visible
29 Jun 6.6 07:49:09 10° NW 15:32:19 67° ESE 16:38:38 55° SE visible
30 Jun 10.3 15:29:36 10° WNW 17:02:00 28° WNW 20:07:33 10° W visible
01 Jul 6.8 11:23:27 10° NW 15:01:25 74° NNW 20:55:39 10° SSE visible
02 Jul 6.6 07:40:08 10° NW 15:20:50 67° ESE 16:32:29 53° SE visible
03 Jul 10.3 15:20:04 10° WNW 16:51:39 28° WNW 19:56:21 10° W visible
